Location: Albany
(35.0170°S, 117.8920°E)
Time: 00:49:53
(UTC+08:00)

Explorer 7 - Pass Details

Date: 30 January 2021
Orbit: 484 x 677 km, 50.3° (Epoch: 01 March)

Event Time Altitude Azimuth Distance (km) Brightness Sun altitude
Rises 20:17:45 0° 227° (SW) 2,957 12.4 -11.9°
Reaches altitude 10° 20:20:12 10° 222° (SW) 2,014 11.0 -12.3°
Maximum altitude 20:24:44 54° 144° (SE) 731 7.4 -13.1°
Enters shadow 20:27:29 21° 73° (ENE) 1,336 8.2 -13.6°
Drops below altitude 10° 20:28:57 10° 66° (ENE) 1,874 - -13.8°
Sets 20:31:10 0° 61° (ENE) 2,731 - -14.2°
